KAY990 MUHA-KMIA

Flight info

Callsign KAY990
Flight time 0h 38m
Altitude 25000
Route MUHA/24 WOLSE1.EMOVI/24 MAXIM SNDBR3
Aircraft A319/M-SDE3FGHIRWY/LB1

Departure

Time 2026-05-03 20:15
Airport José Martí International Airport (MUHA)

Arrival

Time 2026-05-03 20:53
Airport Miami International Airport (KMIA)
Time Latitude Longitude Altitude Speed Heading
2026-05-03 20:15 22.90616 -82.53391 7869 ft 261 kts 234°
2026-05-03 20:15 22.89542 -82.55002 8869 ft 265 kts 234°
2026-05-03 20:15 22.88454 -82.56634 9855 ft 269 kts 234°
2026-05-03 20:15 22.87382 -82.58318 10693 ft 277 kts 240°
2026-05-03 20:16 22.86903 -82.60424 11057 ft 305 kts 271°
2026-05-03 20:16 22.87556 -82.62675 11541 ft 328 kts 302°
2026-05-03 20:16 22.89251 -82.64368 12332 ft 341 kts 330°
2026-05-03 20:16 22.91553 -82.65081 13210 ft 350 kts 353°
2026-05-03 20:17 22.94005 -82.65100 14062 ft 355 kts 359°
2026-05-03 20:17 22.96444 -82.65430 14690 ft 355 kts 340°
2026-05-03 20:17 22.98683 -82.66525 14930 ft 352 kts 328°
2026-05-03 20:17 23.00714 -82.67993 15004 ft 349 kts 320°
2026-05-03 20:18 23.02604 -82.69648 15076 ft 350 kts 317°
2026-05-03 20:18 23.04460 -82.71386 15810 ft 353 kts 316°
2026-05-03 20:18 23.06334 -82.73122 16608 ft 355 kts 317°
2026-05-03 20:18 23.08257 -82.74835 17370 ft 359 kts 318°
2026-05-03 20:19 23.10223 -82.76523 18112 ft 363 kts 319°
2026-05-03 20:19 23.12239 -82.78207 18777 ft 367 kts 320°
2026-05-03 20:19 23.14285 -82.79890 19473 ft 370 kts 320°
2026-05-03 20:19 23.16347 -82.81578 20213 ft 373 kts 320°
2026-05-03 20:20 23.18426 -82.83283 20863 ft 377 kts 319°
2026-05-03 20:20 23.20525 -82.85014 21499 ft 380 kts 319°
2026-05-03 20:20 23.22638 -82.86763 22129 ft 384 kts 319°
2026-05-03 20:20 23.24742 -82.88510 22749 ft 387 kts 319°
2026-05-03 20:21 23.27075 -82.90031 23372 ft 399 kts 333°
2026-05-03 20:21 23.29812 -82.90733 23919 ft 414 kts 352°
2026-05-03 20:21 23.32720 -82.90399 24414 ft 429 kts 12°
2026-05-03 20:21 23.35488 -82.89077 24841 ft 439 kts 24°
2026-05-03 20:22 23.38199 -82.87537 24984 ft 440 kts 24°
2026-05-03 20:22 23.40873 -82.85986 25026 ft 436 kts 24°
2026-05-03 20:22 23.43607 -82.84396 25033 ft 454 kts 24°
2026-05-03 20:22 23.46446 -82.82751 25030 ft 470 kts 24°
2026-05-03 20:23 23.49382 -82.81058 25030 ft 484 kts 24°
2026-05-03 20:23 23.52406 -82.79321 25030 ft 497 kts 24°
2026-05-03 20:23 23.55497 -82.77549 25029 ft 505 kts 25°
2026-05-03 20:23 23.58610 -82.75765 25043 ft 506 kts 24°
2026-05-03 20:24 23.61732 -82.73973 25023 ft 509 kts 24°
2026-05-03 20:24 23.64877 -82.72163 25027 ft 511 kts 24°
2026-05-03 20:24 23.68024 -82.70349 25027 ft 512 kts 24°
2026-05-03 20:24 23.71166 -82.68538 25024 ft 511 kts 24°
2026-05-03 20:25 23.74315 -82.66721 25024 ft 511 kts 24°
2026-05-03 20:25 23.77462 -82.64905 25025 ft 512 kts 24°
2026-05-03 20:25 23.80606 -82.63091 25023 ft 512 kts 24°
2026-05-03 20:25 23.83755 -82.61273 25023 ft 512 kts 24°
2026-05-03 20:26 23.86903 -82.59451 25021 ft 512 kts 24°
2026-05-03 20:26 23.90044 -82.57635 25037 ft 512 kts 24°
2026-05-03 20:26 23.93198 -82.55816 25022 ft 513 kts 24°
2026-05-03 20:26 23.96361 -82.53991 25012 ft 513 kts 24°
2026-05-03 20:27 23.99456 -82.52030 25003 ft 518 kts 32°
2026-05-03 20:27 24.02167 -82.49409 25003 ft 523 kts 44°
2026-05-03 20:27 24.04673 -82.46527 25007 ft 524 kts 44°
2026-05-03 20:27 24.07180 -82.43630 25008 ft 524 kts 44°
2026-05-03 20:28 24.09682 -82.40730 25007 ft 525 kts 44°
2026-05-03 20:28 24.12186 -82.37825 25007 ft 524 kts 44°
2026-05-03 20:28 24.14691 -82.34916 25017 ft 524 kts 45°
2026-05-03 20:28 24.16946 -82.31779 25018 ft 527 kts 57°
2026-05-03 20:29 24.18646 -82.28214 25032 ft 528 kts 64°
2026-05-03 20:29 24.20231 -82.24590 25043 ft 529 kts 64°
2026-05-03 20:29 24.21811 -82.20954 25034 ft 529 kts 64°
2026-05-03 20:29 24.23395 -82.17308 25030 ft 529 kts 64°
2026-05-03 20:30 24.24982 -82.13667 25027 ft 530 kts 64°
2026-05-03 20:30 24.26570 -82.10029 25025 ft 530 kts 64°
2026-05-03 20:30 24.28160 -82.06382 25025 ft 530 kts 64°
2026-05-03 20:30 24.29747 -82.02736 25025 ft 530 kts 64°
2026-05-03 20:31 24.31337 -81.99083 25022 ft 530 kts 64°
2026-05-03 20:31 24.32922 -81.95437 25030 ft 530 kts 64°
2026-05-03 20:31 24.34510 -81.91784 25031 ft 530 kts 64°
2026-05-03 20:31 24.36099 -81.88128 25032 ft 530 kts 64°
2026-05-03 20:32 24.37683 -81.84477 25032 ft 530 kts 64°
2026-05-03 20:32 24.39269 -81.80821 25032 ft 530 kts 64°
2026-05-03 20:32 24.40853 -81.77179 25033 ft 530 kts 64°
2026-05-03 20:32 24.42416 -81.73574 25033 ft 530 kts 64°
2026-05-03 20:33 24.43996 -81.69919 25033 ft 530 kts 64°
2026-05-03 20:33 24.45721 -81.66351 25024 ft 528 kts 55°
2026-05-03 20:33 24.47957 -81.63167 25025 ft 526 kts 48°
2026-05-03 20:33 24.50286 -81.60077 25030 ft 525 kts 48°
2026-05-03 20:34 24.52604 -81.57008 25030 ft 514 kts 48°
2026-05-03 20:34 24.54829 -81.54058 25035 ft 490 kts 48°
2026-05-03 20:34 24.56953 -81.51238 25036 ft 469 kts 48°
2026-05-03 20:34 24.59006 -81.48511 25032 ft 461 kts 48°
2026-05-03 20:35 24.61048 -81.45799 25032 ft 459 kts 48°
2026-05-03 20:35 24.63076 -81.43101 25033 ft 458 kts 48°
2026-05-03 20:35 24.65102 -81.40399 25033 ft 458 kts 48°
2026-05-03 20:35 24.67130 -81.37699 25031 ft 458 kts 48°
2026-05-03 20:36 24.69164 -81.34997 25030 ft 458 kts 48°
2026-05-03 20:36 24.71192 -81.32305 25031 ft 458 kts 48°
2026-05-03 20:36 24.73224 -81.29605 25033 ft 458 kts 48°
2026-05-03 20:36 24.75253 -81.26900 25037 ft 458 kts 48°
2026-05-03 20:37 24.77277 -81.24192 25030 ft 457 kts 48°
2026-05-03 20:37 24.79303 -81.21479 25032 ft 458 kts 48°
2026-05-03 20:37 24.81322 -81.18771 25012 ft 458 kts 48°
2026-05-03 20:37 24.83354 -81.16050 24272 ft 464 kts 48°
2026-05-03 20:38 24.85504 -81.13445 23909 ft 453 kts 39°
2026-05-03 20:38 24.87958 -81.11355 23610 ft 440 kts 28°
2026-05-03 20:38 24.90635 -81.09818 23157 ft 431 kts 19°
2026-05-03 20:38 24.93364 -81.08473 22693 ft 428 kts 19°
2026-05-03 20:39 24.96070 -81.07143 22271 ft 424 kts 20°
2026-05-03 20:39 24.98755 -81.05823 21825 ft 420 kts 20°
2026-05-03 20:39 25.01415 -81.04514 21372 ft 417 kts 20°
2026-05-03 20:39 25.04059 -81.03210 20921 ft 414 kts 20°
2026-05-03 20:40 25.06674 -81.01916 20493 ft 410 kts 20°
2026-05-03 20:40 25.09272 -81.00628 20011 ft 409 kts 20°
2026-05-03 20:40 25.11850 -80.99352 19443 ft 403 kts 20°
2026-05-03 20:40 25.14368 -80.98108 18824 ft 399 kts 20°
2026-05-03 20:41 25.16887 -80.96862 18212 ft 395 kts 20°
2026-05-03 20:41 25.19382 -80.95627 17530 ft 391 kts 20°
2026-05-03 20:41 25.21845 -80.94408 16877 ft 387 kts 20°
2026-05-03 20:41 25.24297 -80.93196 16400 ft 385 kts 20°
2026-05-03 20:42 25.26737 -80.91989 15977 ft 382 kts 20°
2026-05-03 20:42 25.29147 -80.90792 15554 ft 379 kts 20°
2026-05-03 20:42 25.31541 -80.89603 15138 ft 376 kts 21°
2026-05-03 20:42 25.33918 -80.88420 14715 ft 373 kts 21°
2026-05-03 20:43 25.36279 -80.87245 14316 ft 371 kts 21°
2026-05-03 20:43 25.38630 -80.86078 13898 ft 371 kts 20°
2026-05-03 20:43 25.40996 -80.84934 13438 ft 369 kts 19°
2026-05-03 20:43 25.43324 -80.83851 13299 ft 357 kts 19°
2026-05-03 20:44 25.45583 -80.82834 13169 ft 344 kts 17°
2026-05-03 20:44 25.47789 -80.81947 12939 ft 331 kts 15°
2026-05-03 20:44 25.49954 -80.81146 12488 ft 326 kts 14°
2026-05-03 20:44 25.52098 -80.80378 11998 ft 322 kts 14°
2026-05-03 20:45 25.54223 -80.79616 11493 ft 320 kts 14°
2026-05-03 20:45 25.56330 -80.78849 10996 ft 317 kts 14°
2026-05-03 20:45 25.58411 -80.78079 10499 ft 315 kts 15°
2026-05-03 20:45 25.60476 -80.77305 10073 ft 311 kts 15°
2026-05-03 20:46 25.62518 -80.76528 9574 ft 310 kts 17°
2026-05-03 20:46 25.64400 -80.75420 9399 ft 301 kts 33°
2026-05-03 20:46 25.65887 -80.73897 9267 ft 283 kts 49°
2026-05-03 20:46 25.67044 -80.72207 9028 ft 269 kts 51°
2026-05-03 20:47 25.68163 -80.70570 8585 ft 264 kts 51°
2026-05-03 20:47 25.69272 -80.68961 8132 ft 262 kts 51°
2026-05-03 20:47 25.70377 -80.67360 7560 ft 264 kts 51°
2026-05-03 20:47 25.71506 -80.65721 6897 ft 270 kts 51°
2026-05-03 20:48 25.72655 -80.64042 6201 ft 275 kts 52°
2026-05-03 20:48 25.73814 -80.62345 5549 ft 276 kts 52°
2026-05-03 20:48 25.74965 -80.60661 5059 ft 270 kts 52°
2026-05-03 20:48 25.76085 -80.59025 4590 ft 263 kts 52°
2026-05-03 20:49 25.77102 -80.57377 4146 ft 257 kts 64°
2026-05-03 20:49 25.77571 -80.55534 4010 ft 242 kts 84°
2026-05-03 20:49 25.77663 -80.53690 3853 ft 239 kts 88°
2026-05-03 20:49 25.77742 -80.51852 3567 ft 238 kts 88°
2026-05-03 20:50 25.77821 -80.50019 3278 ft 238 kts 88°
2026-05-03 20:50 25.77900 -80.48188 2970 ft 237 kts 87°
2026-05-03 20:50 25.77978 -80.46378 2666 ft 233 kts 87°
2026-05-03 20:50 25.78054 -80.44606 2365 ft 228 kts 87°
2026-05-03 20:51 25.78128 -80.42866 2070 ft 223 kts 87°
2026-05-03 20:51 25.78199 -80.41183 1790 ft 218 kts 87°
2026-05-03 20:51 25.78270 -80.39521 1506 ft 211 kts 87°
2026-05-03 20:51 25.78337 -80.37937 1249 ft 201 kts 87°
2026-05-03 20:52 25.78401 -80.36431 978 ft 190 kts 87°
2026-05-03 20:52 25.78458 -80.35079 753 ft 165 kts 86°
2026-05-03 20:52 25.78505 -80.33894 555 ft 144 kts 86°
2026-05-03 20:52 25.78551 -80.32830 357 ft 133 kts 85°
2026-05-03 20:53 25.78593 -80.31834 166 ft 127 kts 85°
2026-05-03 20:53 25.78631 -80.30858 37 ft 125 kts 85°
2026-05-03 20:53 25.78674 -80.29998 14 ft 88 kts 87°
2026-05-03 20:53 25.78690 -80.29594 15 ft 40 kts 88°
2026-05-03 20:54 25.78700 -80.29376 15 ft 41 kts 85°
2026-05-03 20:54 25.78790 -80.29173 15 ft 0 kts 40°
2026-05-03 20:54 25.78794 -80.29169 16 ft 2 kts 40°
2026-05-03 20:55 25.78810 -80.29145 15 ft 6 kts 62°
2026-05-03 20:55 25.78821 -80.29088 15 ft 9 kts 82°
2026-05-03 20:55 25.78831 -80.29009 15 ft 11 kts 82°
2026-05-03 20:55 25.78849 -80.28916 15 ft 14 kts 73°
2026-05-03 20:56 25.78866 -80.28802 15 ft 16 kts 87°
2026-05-03 20:56 25.78871 -80.28671 15 ft 14 kts 88°
2026-05-03 20:56 25.78930 -80.28583 15 ft 16 kts 35°
2026-05-03 20:56 25.79026 -80.28508 15 ft 18 kts 35°
2026-05-03 20:57 25.79136 -80.28432 15 ft 14 kts 31°
2026-05-03 20:57 25.79197 -80.28342 15 ft 16 kts 75°
2026-05-03 20:57 25.79210 -80.28272 15 ft 0 kts 78°